User: anonymous   Login
Location: Unspecified
(0.0000°N, 0.0000°E)
Time: 10:25:53
(UTC+02:00)
Language:

Sapphire - Orbit

View from above orbital plane
View from above orbital plane
View from above satellite
View from above satellite

Ground track
Ground track

The orbit data is extracted from the following two-line orbital elements,

1 26932U 01043D   15184.87520647 -.00000002  00000-0  31304-4 0  9996
2 26932 067.0557 135.4237 0005122 251.3969 108.6576 14.30153771718229
Epoch (UTC): 03 July 2015 21:00:17
Eccentricity: 0.0005122
inclination: 67.0557°
perigee height: 787 km
apogee height: 795 km
right ascension of ascending node: 135.4237°
argument of perigee: 251.3969°
revolutions per day: 14.30153771
mean anomaly at epoch: 108.6576°
orbit number at epoch: 71822

The dashed part of the orbit path shows where the satellite is in the earth's shadow,  

DLR